Time,TemperatureF,DewpointF,PressureIn,WindDirection,WindDirectionDegrees,WindSpeedMPH,WindSpeedGustMPH,Humidity,HourlyPrecipIn,Conditions,Clouds,dailyrainin,SoftwareType,DateUTC
2013-06-21 00:01:00,70.7,-34.6,29.80,East,90,0.0,2.0,1,0.00,,,0.00,Weather View 32 v70,2013-06-21 04:01:00,
2013-06-21 00:06:00,70.6,-34.7,29.80,East,90,0.0,2.0,1,0.00,,,0.00,Weather View 32 v70,2013-06-21 04:06:00,
2013-06-21 00:11:00,70.6,-34.7,29.80,East,90,1.0,2.0,1,0.00,,,0.00,Weather View 32 v70,2013-06-21 04:11:00,
2013-06-21 00:16:00,70.4,-34.8,29.80,East,90,1.0,2.0,1,0.00,,,0.00,Weather View 32 v70,2013-06-21 04:16:00,
2013-06-21 00:21:00,70.5,-34.8,29.80,ENE,67,1.0,2.0,1,0.00,,,0.00,Weather View 32 v70,2013-06-21 04:21:00,
2013-06-21 00:26:00,70.7,-34.6,29.80,ENE,67,1.0,2.0,1,0.00,,,0.00,Weather View 32 v70,2013-06-21 04:26:00,
2013-06-21 00:31:00,70.6,-34.7,29.80,ENE,67,1.0,2.0,1,0.00,,,0.00,Weather View 32 v70,2013-06-21 04:31:00,
2013-06-21 00:36:00,70.4,-34.8,29.80,ENE,67,0.0,2.0,1,0.00,,,0.00,Weather View 32 v70,2013-06-21 04:36:00,
2013-06-21 00:41:00,70.3,-34.9,29.80,ENE,67,0.0,2.0,1,0.00,,,0.00,Weather View 32 v70,2013-06-21 04:41:00,
2013-06-21 00:46:00,70.4,-34.8,29.80,ENE,67,0.0,2.0,1,0.00,,,0.00,Weather View 32 v70,2013-06-21 04:46:00,
2013-06-21 00:51:00,70.3,-34.9,29.80,ENE,67,0.0,2.0,1,0.00,,,0.00,Weather View 32 v70,2013-06-21 04:51:00,
2013-06-21 00:56:00,70.1,-35.0,29.80,ENE,67,0.0,2.0,1,0.00,,,0.00,Weather View 32 v70,2013-06-21 04:56:00,
2013-06-21 01:01:00,69.7,-35.2,29.80,ENE,67,0.0,2.0,1,0.00,,,0.00,Weather View 32 v70,2013-06-21 05:01:00,
2013-06-21 01:06:00,69.5,-35.4,29.80,ENE,67,1.0,2.0,1,0.00,,,0.00,Weather View 32 v70,2013-06-21 05:06:00,
2013-06-21 01:11:00,69.6,-35.3,29.80,ENE,67,2.0,2.0,1,0.00,,,0.00,Weather View 32 v70,2013-06-21 05:11:00,
2013-06-21 01:15:00,69.9,-35.1,29.79,ENE,67,2.0,2.0,1,0.00,,,0.00,Weather View 32 v70,2013-06-21 05:15:00,
2013-06-21 01:21:00,70.0,-35.1,29.79,ENE,67,2.0,4.0,1,0.00,,,0.00,Weather View 32 v70,2013-06-21 05:21:00,
2013-06-21 01:26:00,70.3,-34.9,29.79,ENE,67,2.0,4.0,1,0.00,,,0.00,Weather View 32 v70,2013-06-21 05:26:00,
2013-06-21 01:31:00,70.5,-34.8,29.79,East,90,1.0,4.0,1,0.00,,,0.00,Weather View 32 v70,2013-06-21 05:31:00,
2013-06-21 01:36:00,69.9,-35.1,29.79,East,90,1.0,4.0,1,0.00,,,0.00,Weather View 32 v70,2013-06-21 05:36:00,
2013-06-21 01:41:00,69.6,-35.3,29.79,East,90,1.0,4.0,1,0.00,,,0.00,Weather View 32 v70,2013-06-21 05:41:00,
2013-06-21 01:46:00,69.3,-35.5,29.79,East,90,0.0,4.0,1,0.00,,,0.00,Weather View 32 v70,2013-06-21 05:46:00,
2013-06-21 01:51:00,69.2,-35.5,29.79,East,90,1.0,4.0,1,0.00,,,0.00,Weather View 32 v70,2013-06-21 05:51:00,
2013-06-21 01:56:00,69.3,-35.5,29.79,ENE,67,2.0,4.0,1,0.00,,,0.00,Weather View 32 v70,2013-06-21 05:56:00,
2013-06-21 02:01:00,69.7,-35.2,29.79,ENE,67,3.0,6.0,1,0.00,,,0.00,Weather View 32 v70,2013-06-21 06:01:00,
2013-06-21 02:06:00,69.8,-35.2,29.79,ENE,67,3.0,6.0,1,0.00,,,0.00,Weather View 32 v70,2013-06-21 06:06:00,
2013-06-21 02:11:00,69.8,-35.2,29.79,East,90,2.0,6.0,1,0.00,,,0.00,Weather View 32 v70,2013-06-21 06:11:00,
2013-06-21 02:16:00,69.9,-35.1,29.79,ENE,67,4.0,6.0,1,0.00,,,0.00,Weather View 32 v70,2013-06-21 06:16:00,
2013-06-21 02:21:00,69.8,-35.2,29.79,ENE,67,3.0,6.0,1,0.00,,,0.00,Weather View 32 v70,2013-06-21 06:21:00,
2013-06-21 02:26:00,69.8,-35.2,29.79,ENE,67,3.0,6.0,1,0.00,,,0.00,Weather View 32 v70,2013-06-21 06:26:00,
2013-06-21 02:31:00,69.7,-35.2,29.79,ENE,67,3.0,6.0,1,0.00,,,0.00,Weather View 32 v70,2013-06-21 06:31:00,
2013-06-21 02:36:00,69.6,-35.3,29.79,ENE,67,4.0,6.0,1,0.00,,,0.00,Weather View 32 v70,2013-06-21 06:36:00,
2013-06-21 02:41:00,69.4,-35.4,29.79,East,90,2.0,6.0,1,0.00,,,0.00,Weather View 32 v70,2013-06-21 06:41:00,
2013-06-21 02:46:00,69.3,-35.5,29.78,East,90,3.0,6.0,1,0.00,,,0.00,Weather View 32 v70,2013-06-21 06:46:00,
2013-06-21 02:51:00,69.2,-35.5,29.78,ENE,67,4.0,6.0,1,0.00,,,0.00,Weather View 32 v70,2013-06-21 06:51:00,
2013-06-21 02:56:00,69.2,-35.5,29.78,ENE,67,4.0,6.0,1,0.00,,,0.00,Weather View 32 v70,2013-06-21 06:56:00,
2013-06-21 03:01:00,69.2,-35.5,29.78,ENE,67,6.0,6.0,1,0.00,,,0.00,Weather View 32 v70,2013-06-21 07:01:00,
2013-06-21 03:06:00,69.1,-35.6,29.78,ENE,67,3.0,6.0,1,0.00,,,0.00,Weather View 32 v70,2013-06-21 07:06:00,
2013-06-21 03:11:00,69.1,-35.6,29.78,ENE,67,2.0,6.0,1,0.00,,,0.00,Weather View 32 v70,2013-06-21 07:11:00,
2013-06-21 03:16:00,69.0,-35.7,29.78,ENE,67,4.0,7.0,1,0.00,,,0.00,Weather View 32 v70,2013-06-21 07:16:00,
2013-06-21 03:21:00,68.9,-35.7,29.78,ENE,67,4.0,7.0,1,0.00,,,0.00,Weather View 32 v70,2013-06-21 07:21:00,
2013-06-21 03:26:00,68.8,-35.8,29.78,NE,45,3.0,7.0,1,0.00,,,0.00,Weather View 32 v70,2013-06-21 07:26:00,
2013-06-21 03:31:00,68.7,-35.8,29.78,ENE,67,4.0,7.0,1,0.00,,,0.00,Weather View 32 v70,2013-06-21 07:31:00,
2013-06-21 03:36:00,68.6,-35.9,29.78,NE,45,4.0,7.0,1,0.00,,,0.00,Weather View 32 v70,2013-06-21 07:36:00,
2013-06-21 03:41:00,68.5,-36.0,29.77,ENE,67,4.0,7.0,1,0.00,,,0.00,Weather View 32 v70,2013-06-21 07:41:00,
2013-06-21 03:46:00,68.4,-36.0,29.78,ENE,67,4.0,7.0,1,0.00,,,0.00,Weather View 32 v70,2013-06-21 07:46:00,
2013-06-21 03:51:00,68.3,-36.1,29.77,ENE,67,3.0,7.0,1,0.00,,,0.00,Weather View 32 v70,2013-06-21 07:51:00,
2013-06-21 03:56:00,68.1,-36.2,29.77,ENE,67,2.0,7.0,1,0.00,,,0.00,Weather View 32 v70,2013-06-21 07:56:00,
2013-06-21 04:01:00,67.9,-36.3,29.77,ENE,67,2.0,7.0,1,0.00,,,0.00,Weather View 32 v70,2013-06-21 08:01:00,
2013-06-21 04:06:00,67.9,-36.3,29.77,NE,45,2.0,7.0,1,0.00,,,0.00,Weather View 32 v70,2013-06-21 08:06:00,
2013-06-21 04:11:00,67.8,-36.4,29.77,NE,45,3.0,7.0,1,0.00,,,0.00,Weather View 32 v70,2013-06-21 08:11:00,
2013-06-21 04:16:00,67.8,-36.4,29.77,NE,45,4.0,7.0,1,0.00,,,0.00,Weather View 32 v70,2013-06-21 08:16:00,
2013-06-21 04:21:00,67.8,-36.4,29.77,NE,45,4.0,7.0,1,0.00,,,0.00,Weather View 32 v70,2013-06-21 08:21:00,
2013-06-21 04:26:00,67.7,-36.4,29.77,NE,45,4.0,7.0,1,0.00,,,0.00,Weather View 32 v70,2013-06-21 08:26:00,
2013-06-21 04:31:00,67.7,-36.4,29.77,NE,45,4.0,7.0,1,0.00,,,0.00,Weather View 32 v70,2013-06-21 08:31:00,
2013-06-21 04:36:00,67.6,-36.5,29.77,ENE,67,2.0,7.0,1,0.00,,,0.00,Weather View 32 v70,2013-06-21 08:36:00,
2013-06-21 04:41:00,67.5,-36.6,29.77,NE,45,4.0,7.0,1,0.00,,,0.00,Weather View 32 v70,2013-06-21 08:41:00,
2013-06-21 04:46:00,67.4,-36.6,29.77,ENE,67,5.0,7.0,1,0.00,,,0.00,Weather View 32 v70,2013-06-21 08:46:00,
2013-06-21 04:51:00,67.3,-36.7,29.77,NE,45,6.0,7.0,1,0.00,,,0.00,Weather View 32 v70,2013-06-21 08:51:00,
2013-06-21 04:56:00,67.2,-36.7,29.77,ENE,67,6.0,9.0,1,0.00,,,0.00,Weather View 32 v70,2013-06-21 08:56:00,
2013-06-21 05:01:00,67.1,-36.8,29.77,NE,45,5.0,9.0,1,0.00,,,0.00,Weather View 32 v70,2013-06-21 09:01:00,
2013-06-21 05:06:00,66.9,-36.9,29.78,NE,45,4.0,9.0,1,0.00,,,0.00,Weather View 32 v70,2013-06-21 09:06:00,
2013-06-21 05:11:00,66.9,-36.9,29.78,NE,45,6.0,9.0,1,0.00,,,0.00,Weather View 32 v70,2013-06-21 09:11:00,
2013-06-21 05:16:00,66.8,-37.0,29.78,NE,45,4.0,9.0,1,0.00,,,0.00,Weather View 32 v70,2013-06-21 09:16:00,
2013-06-21 05:21:00,66.7,-37.0,29.78,NE,45,5.0,9.0,1,0.00,,,0.00,Weather View 32 v70,2013-06-21 09:21:00,
2013-06-21 05:26:00,66.5,-37.2,29.78,NE,45,4.0,11.0,1,0.00,,,0.00,Weather View 32 v70,2013-06-21 09:26:00,
2013-06-21 05:31:00,66.5,-37.2,29.78,ENE,67,3.0,11.0,1,0.00,,,0.00,Weather View 32 v70,2013-06-21 09:31:00,
2013-06-21 05:36:00,66.4,-37.2,29.79,NE,45,4.0,11.0,1,0.00,,,0.00,Weather View 32 v70,2013-06-21 09:36:00,
2013-06-21 05:41:00,66.2,-37.3,29.79,NE,45,6.0,11.0,1,0.00,,,0.00,Weather View 32 v70,2013-06-21 09:41:00,
2013-06-21 05:46:00,66.1,-37.4,29.79,NNW,337,4.0,11.0,1,0.00,,,0.00,Weather View 32 v70,2013-06-21 09:46:00,
2013-06-21 05:51:00,65.9,-37.5,29.79,ENE,67,7.0,11.0,1,0.00,,,0.00,Weather View 32 v70,2013-06-21 09:51:00,
2013-06-21 05:56:00,65.8,-37.6,29.79,NE,45,5.0,11.0,1,0.00,,,0.00,Weather View 32 v70,2013-06-21 09:56:00,
2013-06-21 06:01:00,65.6,-37.7,29.79,NE,45,2.0,11.0,1,0.00,,,0.00,Weather View 32 v70,2013-06-21 10:01:00,
2013-06-21 06:06:00,65.4,-37.8,29.79,NE,45,4.0,11.0,1,0.00,,,0.00,Weather View 32 v70,2013-06-21 10:06:00,
2013-06-21 06:11:00,65.3,-37.9,29.79,ENE,67,3.0,11.0,1,0.00,,,0.00,Weather View 32 v70,2013-06-21 10:11:00,
2013-06-21 06:16:00,65.2,-37.9,29.80,NE,45,5.0,11.0,1,0.00,,,0.00,Weather View 32 v70,2013-06-21 10:16:00,
2013-06-21 06:21:00,65.1,-38.0,29.80,NNE,22,3.0,11.0,1,0.00,,,0.00,Weather View 32 v70,2013-06-21 10:21:00,
2013-06-21 06:26:00,65.0,-38.1,29.80,ENE,67,3.0,9.0,1,0.00,,,0.00,Weather View 32 v70,2013-06-21 10:26:00,
2013-06-21 06:31:00,64.9,-38.1,29.80,NE,45,4.0,9.0,1,0.00,,,0.00,Weather View 32 v70,2013-06-21 10:31:00,
2013-06-21 06:36:00,65.1,-38.0,29.81,NE,45,5.0,9.0,1,0.00,,,0.00,Weather View 32 v70,2013-06-21 10:36:00,
2013-06-21 06:41:00,65.2,-37.9,29.81,NE,45,6.0,9.0,1,0.00,,,0.00,Weather View 32 v70,2013-06-21 10:41:00,
2013-06-21 06:46:00,65.4,-37.8,29.81,NE,45,4.0,9.0,1,0.00,,,0.00,Weather View 32 v70,2013-06-21 10:46:00,
2013-06-21 06:51:00,65.6,-37.7,29.81,NE,45,6.0,9.0,1,0.00,,,0.00,Weather View 32 v70,2013-06-21 10:51:00,
2013-06-21 06:56:00,65.9,-37.5,29.81,NNE,22,5.0,9.0,1,0.00,,,0.00,Weather View 32 v70,2013-06-21 10:56:00,
2013-06-21 07:01:00,66.1,-37.4,29.81,NE,45,4.0,9.0,1,0.00,,,0.00,Weather View 32 v70,2013-06-21 11:01:00,
2013-06-21 07:06:00,66.3,-37.3,29.81,NE,45,6.0,9.0,1,0.00,,,0.00,Weather View 32 v70,2013-06-21 11:06:00,
2013-06-21 07:11:00,66.5,-37.2,29.81,NE,45,5.0,9.0,1,0.00,,,0.00,Weather View 32 v70,2013-06-21 11:11:00,
2013-06-21 07:16:00,66.7,-37.0,29.81,East,90,6.0,9.0,1,0.00,,,0.00,Weather View 32 v70,2013-06-21 11:16:00,
2013-06-21 07:21:00,66.9,-36.9,29.81,ENE,67,6.0,9.0,1,0.00,,,0.00,Weather View 32 v70,2013-06-21 11:21:00,
2013-06-21 07:26:00,67.0,-36.9,29.81,NE,45,5.0,10.0,1,0.00,,,0.00,Weather View 32 v70,2013-06-21 11:26:00,
2013-06-21 07:31:00,67.2,-36.7,29.81,ENE,67,4.0,10.0,1,0.00,,,0.00,Weather View 32 v70,2013-06-21 11:31:00,
2013-06-21 07:36:00,67.5,-36.6,29.81,NE,45,4.0,11.0,1,0.00,,,0.00,Weather View 32 v70,2013-06-21 11:36:00,
2013-06-21 07:41:00,67.7,-36.4,29.81,NNE,22,7.0,11.0,1,0.00,,,0.00,Weather View 32 v70,2013-06-21 11:41:00,
2013-06-21 07:46:00,67.8,-36.4,29.81,NE,45,4.0,11.0,1,0.00,,,0.00,Weather View 32 v70,2013-06-21 11:46:00,
2013-06-21 07:51:00,67.9,-36.3,29.81,NE,45,4.0,11.0,1,0.00,,,0.00,Weather View 32 v70,2013-06-21 11:51:00,
2013-06-21 07:56:00,68.3,-36.1,29.81,ENE,67,7.0,12.0,1,0.00,,,0.00,Weather View 32 v70,2013-06-21 11:56:00,
2013-06-21 08:01:00,68.4,-36.0,29.81,ENE,67,6.0,12.0,1,0.00,,,0.00,Weather View 32 v70,2013-06-21 12:01:00,
2013-06-21 08:06:00,68.7,-35.8,29.81,ENE,67,8.0,12.0,1,0.00,,,0.00,Weather View 32 v70,2013-06-21 12:06:00,
2013-06-21 08:11:00,68.9,-35.7,29.81,ENE,67,6.0,12.0,1,0.00,,,0.00,Weather View 32 v70,2013-06-21 12:11:00,
2013-06-21 08:16:00,69.1,-35.6,29.81,East,90,7.0,14.0,1,0.00,,,0.00,Weather View 32 v70,2013-06-21 12:16:00,
2013-06-21 08:21:00,69.4,-35.4,29.81,East,90,4.0,14.0,1,0.00,,,0.00,Weather View 32 v70,2013-06-21 12:21:00,
2013-06-21 08:26:00,69.8,-35.2,29.81,NE,45,10.0,14.0,1,0.00,,,0.00,Weather View 32 v70,2013-06-21 12:26:00,
2013-06-21 08:31:00,70.1,-35.0,29.82,ENE,67,4.0,14.0,1,0.00,,,0.00,Weather View 32 v70,2013-06-21 12:31:00,
2013-06-21 08:36:00,70.4,-34.8,29.82,NE,45,6.0,14.0,1,0.00,,,0.00,Weather View 32 v70,2013-06-21 12:36:00,
2013-06-21 08:41:00,70.7,0.2,29.82,East,90,6.0,14.0,6,0.00,,,0.00,Weather View 32 v70,2013-06-21 12:41:00,
2013-06-21 08:46:00,70.9,6.5,29.83,NE,45,9.0,14.0,8,0.00,,,0.00,Weather View 32 v70,2013-06-21 12:46:00,
2013-06-21 08:51:00,71.0,6.6,29.83,ENE,67,6.0,14.0,8,0.00,,,0.00,Weather View 32 v70,2013-06-21 12:51:00,
2013-06-21 08:56:00,71.3,9.4,29.83,NE,45,9.0,14.0,9,0.00,,,0.00,Weather View 32 v70,2013-06-21 12:56:00,
2013-06-21 09:01:00,71.7,24.5,29.83,East,90,8.0,14.0,17,0.00,,,0.00,Weather View 32 v70,2013-06-21 13:01:00,
2013-06-21 09:06:00,71.9,26.0,29.83,East,90,7.0,14.0,18,0.00,,,0.00,Weather View 32 v70,2013-06-21 13:06:00,
2013-06-21 09:11:00,72.3,23.5,29.83,ENE,67,4.0,14.0,16,0.00,,,0.00,Weather View 32 v70,2013-06-21 13:11:00,
2013-06-21 09:16:00,72.8,28.0,29.83,ENE,67,10.0,14.0,19,0.00,,,0.00,Weather View 32 v70,2013-06-21 13:16:00,
2013-06-21 09:21:00,73.0,28.2,29.83,ENE,67,6.0,16.0,19,0.00,,,0.00,Weather View 32 v70,2013-06-21 13:21:00,
2013-06-21 09:26:00,73.5,29.9,29.83,East,90,9.0,16.0,20,0.00,,,0.00,Weather View 32 v70,2013-06-21 13:26:00,
2013-06-21 09:31:00,73.6,31.2,29.83,East,90,6.0,16.0,21,0.00,,,0.00,Weather View 32 v70,2013-06-21 13:31:00,
2013-06-21 09:36:00,73.9,38.7,29.84,ENE,67,13.0,16.0,28,0.00,,,0.00,Weather View 32 v70,2013-06-21 13:36:00,
2013-06-21 09:41:00,73.9,37.7,29.83,ENE,67,9.0,16.0,27,0.00,,,0.00,Weather View 32 v70,2013-06-21 13:41:00,
2013-06-21 09:46:00,74.3,37.1,29.84,East,90,4.0,16.0,26,0.00,,,0.00,Weather View 32 v70,2013-06-21 13:46:00,
2013-06-21 09:51:00,74.7,42.0,29.84,NNE,22,9.0,16.0,31,0.00,,,0.00,Weather View 32 v70,2013-06-21 13:51:00,
2013-06-21 09:56:00,74.9,46.8,29.83,NE,45,11.0,16.0,37,0.00,,,0.00,Weather View 32 v70,2013-06-21 13:56:00,
2013-06-21 10:01:00,74.9,46.8,29.83,East,90,11.0,16.0,37,0.00,,,0.00,Weather View 32 v70,2013-06-21 14:01:00,
2013-06-21 10:06:00,74.9,48.9,29.83,East,90,11.0,18.0,40,0.00,,,0.00,Weather View 32 v70,2013-06-21 14:06:00,
2013-06-21 10:11:00,75.3,51.8,29.83,NE,45,12.0,18.0,44,0.00,,,0.00,Weather View 32 v70,2013-06-21 14:11:00,
2013-06-21 10:17:00,75.5,54.4,29.83,East,90,8.0,19.0,48,0.00,,,0.00,Weather View 32 v70,2013-06-21 14:17:00,
2013-06-21 10:23:00,75.5,53.2,29.83,East,90,11.0,19.0,46,0.00,,,0.00,Weather View 32 v70,2013-06-21 14:23:00,
2013-06-21 10:28:00,75.8,52.9,29.83,East,90,11.0,19.0,45,0.00,,,0.00,Weather View 32 v70,2013-06-21 14:28:00,
2013-06-21 10:34:00,76.1,54.3,29.83,East,90,5.0,19.0,47,0.00,,,0.00,Weather View 32 v70,2013-06-21 14:34:00,
2013-06-21 10:39:00,76.5,56.4,29.83,NE,45,8.0,19.0,50,0.00,,,0.00,Weather View 32 v70,2013-06-21 14:39:00,
2013-06-21 10:44:00,76.7,57.7,29.83,NE,45,12.0,19.0,52,0.00,,,0.00,Weather View 32 v70,2013-06-21 14:44:00,
2013-06-21 10:49:00,76.7,58.7,29.84,ENE,67,6.0,19.0,54,0.00,,,0.00,Weather View 32 v70,2013-06-21 14:49:00,
2013-06-21 10:54:00,77.1,59.6,29.84,East,90,10.0,19.0,55,0.00,,,0.00,Weather View 32 v70,2013-06-21 14:54:00,
2013-06-21 10:59:00,77.3,58.8,29.84,East,90,14.0,19.0,53,0.00,,,0.00,Weather View 32 v70,2013-06-21 14:59:00,
2013-06-21 11:04:00,77.4,61.4,29.84,North,360,6.0,19.0,58,0.00,,,0.00,Weather View 32 v70,2013-06-21 15:04:00,
2013-06-21 11:09:00,77.7,61.7,29.84,ENE,67,8.0,19.0,58,0.00,,,0.00,Weather View 32 v70,2013-06-21 15:09:00,
2013-06-21 11:14:00,77.7,61.7,29.84,East,90,9.0,19.0,58,0.00,,,0.00,Weather View 32 v70,2013-06-21 15:14:00,
2013-06-21 11:19:00,77.7,62.2,29.83,ENE,67,10.0,19.0,59,0.00,,,0.00,Weather View 32 v70,2013-06-21 15:19:00,
2013-06-21 11:24:00,78.1,62.6,29.83,NE,45,9.0,17.0,59,0.00,,,0.00,Weather View 32 v70,2013-06-21 15:24:00,
2013-06-21 11:29:00,78.3,62.7,29.84,NE,45,7.0,17.0,59,0.00,,,0.00,Weather View 32 v70,2013-06-21 15:29:00,
2013-06-21 11:34:00,78.3,62.3,29.84,ENE,67,11.0,17.0,58,0.00,,,0.00,Weather View 32 v70,2013-06-21 15:34:00,
2013-06-21 11:39:00,78.6,63.0,29.84,NE,45,9.0,17.0,59,0.00,,,0.00,Weather View 32 v70,2013-06-21 15:39:00,
2013-06-21 11:44:00,78.7,63.1,29.84,East,90,6.0,17.0,59,0.00,,,0.00,Weather View 32 v70,2013-06-21 15:44:00,
2013-06-21 11:49:00,78.9,63.3,29.84,East,90,9.0,17.0,59,0.00,,,0.00,Weather View 32 v70,2013-06-21 15:49:00,
2013-06-21 11:54:00,79.1,62.5,29.84,NE,45,10.0,21.0,57,0.00,,,0.00,Weather View 32 v70,2013-06-21 15:54:00,
2013-06-21 11:59:00,78.9,63.8,29.84,ENE,67,10.0,21.0,60,0.00,,,0.00,Weather View 32 v70,2013-06-21 15:59:00,
2013-06-21 12:04:00,79.1,63.0,29.84,NE,45,12.0,21.0,58,0.00,,,0.00,Weather View 32 v70,2013-06-21 16:04:00,
2013-06-21 12:09:00,79.2,63.6,29.84,East,90,15.0,21.0,59,0.00,,,0.00,Weather View 32 v70,2013-06-21 16:09:00,
2013-06-21 12:14:00,79.2,63.6,29.83,East,90,6.0,21.0,59,0.00,,,0.00,Weather View 32 v70,2013-06-21 16:14:00,
2013-06-21 12:19:00,79.5,64.8,29.83,East,90,6.0,21.0,61,0.00,,,0.00,Weather View 32 v70,2013-06-21 16:19:00,
2013-06-21 12:24:00,79.8,65.1,29.83,ENE,67,8.0,21.0,61,0.00,,,0.00,Weather View 32 v70,2013-06-21 16:24:00,
2013-06-21 12:29:00,79.8,64.1,29.83,NE,45,5.0,21.0,59,0.00,,,0.00,Weather View 32 v70,2013-06-21 16:29:00,
2013-06-21 12:34:00,80.1,63.9,29.84,NE,45,6.0,21.0,58,0.00,,,0.00,Weather View 32 v70,2013-06-21 16:34:00,
2013-06-21 12:39:00,79.9,62.7,29.83,NNE,22,7.0,21.0,56,0.00,,,0.00,Weather View 32 v70,2013-06-21 16:39:00,
2013-06-21 12:44:00,79.9,64.2,29.83,East,90,9.0,21.0,59,0.00,,,0.00,Weather View 32 v70,2013-06-21 16:44:00,
2013-06-21 12:50:00,79.9,65.2,29.83,East,90,9.0,21.0,61,0.00,,,0.00,Weather View 32 v70,2013-06-21 16:50:00,
2013-06-21 12:55:00,80.4,63.2,29.83,North,360,13.0,17.0,56,0.00,,,0.00,Weather View 32 v70,2013-06-21 16:55:00,
2013-06-21 13:00:00,80.9,64.2,29.83,NE,45,12.0,17.0,57,0.00,,,0.00,Weather View 32 v70,2013-06-21 17:00:00,
2013-06-21 13:05:00,80.5,62.3,29.83,NE,45,9.0,17.0,54,0.00,,,0.00,Weather View 32 v70,2013-06-21 17:05:00,
2013-06-21 13:10:00,80.8,59.8,29.83,ENE,67,11.0,17.0,49,0.00,,,0.00,Weather View 32 v70,2013-06-21 17:10:00,
2013-06-21 13:16:00,80.7,60.8,29.82,East,90,12.0,19.0,51,0.00,,,0.00,Weather View 32 v70,2013-06-21 17:16:00,
2013-06-21 13:21:00,80.6,60.7,29.83,NE,45,10.0,19.0,51,0.00,,,0.00,Weather View 32 v70,2013-06-21 17:21:00,
2013-06-21 13:26:00,80.9,63.7,29.83,NE,45,9.0,19.0,56,0.00,,,0.00,Weather View 32 v70,2013-06-21 17:26:00,
2013-06-21 13:34:00,81.4,59.2,29.82,NE,45,11.0,19.0,47,0.00,,,0.00,Weather View 32 v70,2013-06-21 17:34:00,
2013-06-21 13:39:00,81.2,57.8,29.82,ENE,67,7.0,19.0,45,0.00,,,0.00,Weather View 32 v70,2013-06-21 17:39:00,
2013-06-21 13:45:00,81.8,56.4,29.82,NNE,22,9.0,19.0,42,0.00,,,0.00,Weather View 32 v70,2013-06-21 17:45:00,
2013-06-21 13:46:00,81.9,55.1,29.82,ENE,67,8.0,19.0,40,0.00,,,0.00,Weather View 32 v70,2013-06-21 17:46:00,
2013-06-21 13:48:00,81.8,52.1,29.82,NE,45,7.0,19.0,36,0.00,,,0.00,Weather View 32 v70,2013-06-21 17:48:00,
2013-06-21 13:53:00,81.8,48.1,29.81,NNE,22,2.0,19.0,31,0.00,,,0.00,Weather View 32 v70,2013-06-21 17:53:00,
2013-06-21 13:59:00,81.9,50.7,29.81,NE,45,7.0,19.0,34,0.00,,,0.00,Weather View 32 v70,2013-06-21 17:59:00,
2013-06-21 14:03:00,82.1,48.4,29.81,NNE,22,8.0,19.0,31,0.00,,,0.00,Weather View 32 v70,2013-06-21 18:03:00,
2013-06-21 14:08:00,82.4,50.3,29.81,NE,45,14.0,19.0,33,0.00,,,0.00,Weather View 32 v70,2013-06-21 18:08:00,
2013-06-21 14:14:00,82.6,47.9,29.81,East,90,16.0,19.0,30,0.00,,,0.00,Weather View 32 v70,2013-06-21 18:14:00,
2013-06-21 14:19:00,82.5,48.7,29.81,East,90,11.0,19.0,31,0.00,,,0.00,Weather View 32 v70,2013-06-21 18:19:00,
2013-06-21 14:23:00,82.6,50.5,29.81,ENE,67,6.0,19.0,33,0.00,,,0.00,Weather View 32 v70,2013-06-21 18:23:00,
2013-06-21 14:28:00,82.6,50.5,29.81,East,90,6.0,19.0,33,0.00,,,0.00,Weather View 32 v70,2013-06-21 18:28:00,
2013-06-21 14:33:00,82.7,48.9,29.81,ENE,67,12.0,19.0,31,0.00,,,0.00,Weather View 32 v70,2013-06-21 18:33:00,
2013-06-21 14:38:00,82.7,49.7,29.81,ENE,67,9.0,19.0,32,0.00,,,0.00,Weather View 32 v70,2013-06-21 18:38:00,
2013-06-21 14:43:00,82.5,48.7,29.81,East,90,10.0,19.0,31,0.00,,,0.00,Weather View 32 v70,2013-06-21 18:43:00,
2013-06-21 14:45:00,82.6,49.7,29.81,ENE,67,6.0,19.0,32,0.00,,,0.00,Weather View 32 v70,2013-06-21 18:45:00,
2013-06-21 14:50:00,82.9,51.6,29.81,NE,45,11.0,19.0,34,0.00,,,0.00,Weather View 32 v70,2013-06-21 18:50:00,
2013-06-21 14:56:00,83.2,51.8,29.81,East,90,11.0,19.0,34,0.00,,,0.00,Weather View 32 v70,2013-06-21 18:56:00,
2013-06-21 15:02:00,83.8,52.3,29.81,NE,45,7.0,17.0,34,0.00,,,0.00,Weather View 32 v70,2013-06-21 19:02:00,
2013-06-21 15:07:00,83.6,52.2,29.80,ENE,67,10.0,17.0,34,0.00,,,0.00,Weather View 32 v70,2013-06-21 19:07:00,
2013-06-21 15:12:00,83.3,49.4,29.80,NE,45,12.0,17.0,31,0.00,,,0.00,Weather View 32 v70,2013-06-21 19:12:00,
2013-06-21 15:17:00,83.3,51.1,29.80,ENE,67,7.0,17.0,33,0.00,,,0.00,Weather View 32 v70,2013-06-21 19:17:00,
2013-06-21 15:20:00,83.2,52.6,29.80,ENE,67,4.0,17.0,35,0.00,,,0.00,Weather View 32 v70,2013-06-21 19:20:00,
2013-06-21 15:25:00,83.6,53.0,29.80,ENE,67,2.0,18.0,35,0.00,,,0.00,Weather View 32 v70,2013-06-21 19:25:00,
2013-06-21 15:30:00,83.9,57.6,29.80,NE,45,6.0,18.0,41,0.00,,,0.00,Weather View 32 v70,2013-06-21 19:30:00,
2013-06-21 15:35:00,83.9,54.0,29.80,ENE,67,4.0,18.0,36,0.00,,,0.00,Weather View 32 v70,2013-06-21 19:35:00,
2013-06-21 15:40:00,84.4,55.2,29.80,NE,45,2.0,18.0,37,0.00,,,0.00,Weather View 32 v70,2013-06-21 19:40:00,
2013-06-21 15:42:00,84.8,54.0,29.79,East,90,9.0,18.0,35,0.00,,,0.00,Weather View 32 v70,2013-06-21 19:42:00,
2013-06-21 15:43:00,84.7,53.9,29.79,NE,45,9.0,18.0,35,0.00,,,0.00,Weather View 32 v70,2013-06-21 19:43:00,
2013-06-21 15:48:00,84.8,52.4,29.79,ENE,67,5.0,18.0,33,0.00,,,0.00,Weather View 32 v70,2013-06-21 19:48:00,
2013-06-21 15:53:00,84.5,54.5,29.79,NNE,22,7.0,18.0,36,0.00,,,0.00,Weather View 32 v70,2013-06-21 19:53:00,
2013-06-21 15:58:00,84.9,55.6,29.79,North,360,3.0,18.0,37,0.00,,,0.00,Weather View 32 v70,2013-06-21 19:58:00,
2013-06-21 16:03:00,85.1,58.0,29.79,East,90,7.0,18.0,40,0.00,,,0.00,Weather View 32 v70,2013-06-21 20:03:00,
2013-06-21 16:04:00,85.1,58.0,29.79,ENE,67,4.0,18.0,40,0.00,,,0.00,Weather View 32 v70,2013-06-21 20:04:00,
2013-06-21 16:09:00,84.7,56.9,29.79,ENE,67,8.0,18.0,39,0.00,,,0.00,Weather View 32 v70,2013-06-21 20:09:00,
2013-06-21 16:11:00,84.5,58.1,29.79,ENE,67,4.0,18.0,41,0.00,,,0.00,Weather View 32 v70,2013-06-21 20:11:00,
2013-06-21 16:13:00,84.3,58.6,29.79,East,90,8.0,18.0,42,0.00,,,0.00,Weather View 32 v70,2013-06-21 20:13:00,
2013-06-21 16:18:00,84.6,60.2,29.79,East,90,6.0,18.0,44,0.00,,,0.00,Weather View 32 v70,2013-06-21 20:18:00,
2013-06-21 16:23:00,84.8,62.9,29.79,NE,45,7.0,18.0,48,0.00,,,0.00,Weather View 32 v70,2013-06-21 20:23:00,
2013-06-21 16:28:00,84.8,62.3,29.79,NE,45,8.0,16.0,47,0.00,,,0.00,Weather View 32 v70,2013-06-21 20:28:00,
2013-06-21 16:33:00,85.2,63.2,29.79,ENE,67,7.0,16.0,48,0.00,,,0.00,Weather View 32 v70,2013-06-21 20:33:00,
2013-06-21 16:38:00,84.7,62.8,29.79,NE,45,5.0,16.0,48,0.00,,,0.00,Weather View 32 v70,2013-06-21 20:38:00,
2013-06-21 16:44:00,85.3,63.3,29.79,NNE,22,2.0,16.0,48,0.00,,,0.00,Weather View 32 v70,2013-06-21 20:44:00,
2013-06-21 16:49:00,85.4,62.8,29.79,NE,45,4.0,16.0,47,0.00,,,0.00,Weather View 32 v70,2013-06-21 20:49:00,
2013-06-21 16:54:00,85.4,67.9,29.79,North,360,5.0,16.0,56,0.00,,,0.00,Weather View 32 v70,2013-06-21 20:54:00,
2013-06-21 16:59:00,84.9,66.3,29.79,NE,45,6.0,16.0,54,0.00,,,0.00,Weather View 32 v70,2013-06-21 20:59:00,
2013-06-21 17:04:00,84.4,66.4,29.79,SSE,157,4.0,16.0,55,0.00,,,0.00,Weather View 32 v70,2013-06-21 21:04:00,
2013-06-21 17:09:00,84.9,67.9,29.78,East,90,7.0,12.0,57,0.00,,,0.00,Weather View 32 v70,2013-06-21 21:09:00,
2013-06-21 17:14:00,84.5,67.5,29.78,East,90,8.0,12.0,57,0.00,,,0.00,Weather View 32 v70,2013-06-21 21:14:00,
2013-06-21 17:19:00,83.7,67.8,29.78,East,90,2.0,12.0,59,0.00,,,0.00,Weather View 32 v70,2013-06-21 21:19:00,
2013-06-21 17:24:00,83.8,68.4,29.78,East,90,4.0,12.0,60,0.00,,,0.00,Weather View 32 v70,2013-06-21 21:24:00,
2013-06-21 17:29:00,84.1,68.2,29.78,NE,45,5.0,12.0,59,0.00,,,0.00,Weather View 32 v70,2013-06-21 21:29:00,
2013-06-21 17:34:00,84.2,69.2,29.78,ENE,67,8.0,12.0,61,0.00,,,0.00,Weather View 32 v70,2013-06-21 21:34:00,
2013-06-21 17:39:00,83.8,69.3,29.78,NE,45,6.0,12.0,62,0.00,,,0.00,Weather View 32 v70,2013-06-21 21:39:00,
2013-06-21 17:44:00,83.7,68.3,29.78,East,90,5.0,12.0,60,0.00,,,0.00,Weather View 32 v70,2013-06-21 21:44:00,
2013-06-21 17:49:00,83.9,68.5,29.77,NE,45,9.0,12.0,60,0.00,,,0.00,Weather View 32 v70,2013-06-21 21:49:00,
2013-06-21 17:55:00,84.3,68.8,29.77,East,90,5.0,12.0,60,0.00,,,0.00,Weather View 32 v70,2013-06-21 21:55:00,
2013-06-21 18:00:00,84.4,69.9,29.77,ENE,67,5.0,12.0,62,0.00,,,0.00,Weather View 32 v70,2013-06-21 22:00:00,
2013-06-21 18:05:00,84.4,69.4,29.77,ENE,67,5.0,12.0,61,0.00,,,0.00,Weather View 32 v70,2013-06-21 22:05:00,
2013-06-21 18:10:00,84.3,69.8,29.77,East,90,8.0,12.0,62,0.00,,,0.00,Weather View 32 v70,2013-06-21 22:10:00,
2013-06-21 18:15:00,84.5,69.5,29.77,East,90,8.0,14.0,61,0.00,,,0.00,Weather View 32 v70,2013-06-21 22:15:00,
2013-06-21 18:20:00,83.9,69.4,29.77,East,90,4.0,14.0,62,0.00,,,0.00,Weather View 32 v70,2013-06-21 22:20:00,
2013-06-21 18:25:00,83.8,69.3,29.77,East,90,6.0,14.0,62,0.00,,,0.00,Weather View 32 v70,2013-06-21 22:25:00,
2013-06-21 18:30:00,83.9,69.4,29.78,ESE,112,4.0,14.0,62,0.00,,,0.00,Weather View 32 v70,2013-06-21 22:30:00,
2013-06-21 18:35:00,83.9,69.4,29.77,East,90,6.0,14.0,62,0.00,,,0.00,Weather View 32 v70,2013-06-21 22:35:00,
2013-06-21 18:40:00,83.9,69.9,29.77,East,90,6.0,14.0,63,0.00,,,0.00,Weather View 32 v70,2013-06-21 22:40:00,
2013-06-21 18:45:00,83.7,69.7,29.77,North,360,5.0,14.0,63,0.00,,,0.00,Weather View 32 v70,2013-06-21 22:45:00,
2013-06-21 18:50:00,83.9,69.9,29.77,ENE,67,3.0,14.0,63,0.00,,,0.00,Weather View 32 v70,2013-06-21 22:50:00,
2013-06-21 18:55:00,83.9,69.9,29.77,NE,45,5.0,14.0,63,0.00,,,0.00,Weather View 32 v70,2013-06-21 22:55:00,
2013-06-21 19:00:00,83.9,69.9,29.77,NE,45,4.0,14.0,63,0.00,,,0.00,Weather View 32 v70,2013-06-21 23:00:00,
2013-06-21 19:05:00,83.8,69.8,29.77,ENE,67,4.0,14.0,63,0.00,,,0.00,Weather View 32 v70,2013-06-21 23:05:00,
2013-06-21 19:10:00,83.5,69.5,29.77,NE,45,4.0,14.0,63,0.00,,,0.00,Weather View 32 v70,2013-06-21 23:10:00,
2013-06-21 19:15:00,83.8,70.3,29.77,East,90,5.0,13.0,64,0.00,,,0.00,Weather View 32 v70,2013-06-21 23:15:00,
2013-06-21 19:20:00,83.5,69.5,29.77,NE,45,4.0,9.0,63,0.00,,,0.00,Weather View 32 v70,2013-06-21 23:20:00,
2013-06-21 19:25:00,83.3,69.8,29.77,NE,45,7.0,9.0,64,0.00,,,0.00,Weather View 32 v70,2013-06-21 23:25:00,
2013-06-21 19:30:00,82.9,69.4,29.77,NE,45,6.0,9.0,64,0.00,,,0.00,Weather View 32 v70,2013-06-21 23:30:00,
2013-06-21 19:35:00,82.7,69.2,29.77,NE,45,4.0,9.0,64,0.00,,,0.00,Weather View 32 v70,2013-06-21 23:35:00,
2013-06-21 19:40:00,82.4,68.9,29.77,ENE,67,2.0,9.0,64,0.00,,,0.00,Weather View 32 v70,2013-06-21 23:40:00,
2013-06-21 19:45:00,82.3,68.9,29.77,NE,45,2.0,8.0,64,0.00,,,0.00,Weather View 32 v70,2013-06-21 23:45:00,
2013-06-21 19:50:00,82.3,68.9,29.77,NE,45,4.0,8.0,64,0.00,,,0.00,Weather View 32 v70,2013-06-21 23:50:00,
2013-06-21 19:55:00,81.9,68.5,29.77,ENE,67,3.0,8.0,64,0.00,,,0.00,Weather View 32 v70,2013-06-21 23:55:00,
2013-06-21 20:00:00,81.6,67.7,29.77,NE,45,2.0,8.0,63,0.00,,,0.00,Weather View 32 v70,2013-06-22 00:00:00,
2013-06-21 20:05:00,81.3,67.4,29.77,NE,45,2.0,8.0,63,0.00,,,0.00,Weather View 32 v70,2013-06-22 00:05:00,
2013-06-21 20:10:00,80.9,66.1,29.77,ENE,67,2.0,8.0,61,0.00,,,0.00,Weather View 32 v70,2013-06-22 00:10:00,
2013-06-21 20:15:00,80.4,64.7,29.77,ENE,67,1.0,8.0,59,0.00,,,0.00,Weather View 32 v70,2013-06-22 00:15:00,
2013-06-21 20:20:00,79.9,61.7,29.77,NE,45,3.0,8.0,54,0.00,,,0.00,Weather View 32 v70,2013-06-22 00:20:00,
2013-06-21 20:25:00,79.5,59.7,29.77,NE,45,2.0,8.0,51,0.00,,,0.00,Weather View 32 v70,2013-06-22 00:25:00,
2013-06-21 20:30:00,79.2,58.3,29.77,NE,45,3.0,8.0,49,0.00,,,0.00,Weather View 32 v70,2013-06-22 00:30:00,
2013-06-21 20:35:00,78.9,56.3,29.77,NE,45,2.0,6.0,46,0.00,,,0.00,Weather View 32 v70,2013-06-22 00:35:00,
2013-06-21 20:40:00,78.8,55.6,29.78,NE,45,3.0,6.0,45,0.00,,,0.00,Weather View 32 v70,2013-06-22 00:40:00,
2013-06-21 20:45:00,78.6,54.2,29.78,NE,45,2.0,6.0,43,0.00,,,0.00,Weather View 32 v70,2013-06-22 00:45:00,
2013-06-21 20:50:00,78.5,53.4,29.77,NE,45,2.0,6.0,42,0.00,,,0.00,Weather View 32 v70,2013-06-22 00:50:00,
2013-06-21 20:55:00,78.3,51.9,29.77,NE,45,2.0,5.0,40,0.00,,,0.00,Weather View 32 v70,2013-06-22 00:55:00,
2013-06-21 21:00:00,78.0,51.0,29.77,NE,45,2.0,5.0,39,0.00,,,0.00,Weather View 32 v70,2013-06-22 01:00:00,
2013-06-21 21:05:00,77.9,50.9,29.77,NE,45,4.0,5.0,39,0.00,,,0.00,Weather View 32 v70,2013-06-22 01:05:00,
2013-06-21 21:10:00,77.7,50.0,29.77,NE,45,2.0,5.0,38,0.00,,,0.00,Weather View 32 v70,2013-06-22 01:10:00,
2013-06-21 21:15:00,77.7,50.7,29.77,NE,45,1.0,5.0,39,0.00,,,0.00,Weather View 32 v70,2013-06-22 01:15:00,
2013-06-21 21:20:00,77.7,51.4,29.77,NNE,22,2.0,5.0,40,0.00,,,0.00,Weather View 32 v70,2013-06-22 01:20:00,
2013-06-21 21:25:00,77.6,50.6,29.77,NE,45,2.0,5.0,39,0.00,,,0.00,Weather View 32 v70,2013-06-22 01:25:00,
2013-06-21 21:30:00,77.5,49.8,29.77,NE,45,2.0,5.0,38,0.00,,,0.00,Weather View 32 v70,2013-06-22 01:30:00,
2013-06-21 21:35:00,77.4,48.3,29.77,NE,45,2.0,5.0,36,0.00,,,0.00,Weather View 32 v70,2013-06-22 01:35:00,
2013-06-21 21:40:00,77.3,47.4,29.77,NE,45,3.0,5.0,35,0.00,,,0.00,Weather View 32 v70,2013-06-22 01:40:00,
2013-06-21 21:45:00,77.2,47.3,29.78,NE,45,2.0,5.0,35,0.00,,,0.00,Weather View 32 v70,2013-06-22 01:45:00,
2013-06-21 21:50:00,77.1,45.7,29.78,NE,45,2.0,5.0,33,0.00,,,0.00,Weather View 32 v70,2013-06-22 01:50:00,
2013-06-21 21:55:00,76.9,43.0,29.78,NE,45,2.0,6.0,30,0.00,,,0.00,Weather View 32 v70,2013-06-22 01:55:00,
2013-06-21 22:00:00,76.8,41.1,29.78,NE,45,3.0,6.0,28,0.00,,,0.00,Weather View 32 v70,2013-06-22 02:00:00,
2013-06-21 22:05:00,76.6,39.1,29.78,NE,45,3.0,6.0,26,0.00,,,0.00,Weather View 32 v70,2013-06-22 02:05:00,
2013-06-21 22:10:00,76.4,35.8,29.78,NE,45,2.0,6.0,23,0.00,,,0.00,Weather View 32 v70,2013-06-22 02:10:00,
2013-06-21 22:15:00,76.2,32.1,29.78,NE,45,2.0,6.0,20,0.00,,,0.00,Weather View 32 v70,2013-06-22 02:15:00,
2013-06-21 22:20:00,76.0,30.7,29.79,NE,45,2.0,6.0,19,0.00,,,0.00,Weather View 32 v70,2013-06-22 02:20:00,
2013-06-21 22:25:00,75.9,27.9,29.79,NE,45,4.0,6.0,17,0.00,,,0.00,Weather View 32 v70,2013-06-22 02:25:00,
2013-06-21 22:30:00,75.8,26.3,29.79,NE,45,2.0,6.0,16,0.00,,,0.00,Weather View 32 v70,2013-06-22 02:30:00,
2013-06-21 22:35:00,75.8,23.1,29.79,NE,45,3.0,6.0,14,0.00,,,0.00,Weather View 32 v70,2013-06-22 02:35:00,
2013-06-21 22:40:00,75.7,23.0,29.79,NE,45,2.0,6.0,14,0.00,,,0.00,Weather View 32 v70,2013-06-22 02:40:00,
2013-06-21 22:45:00,75.7,21.3,29.79,NE,45,3.0,6.0,13,0.00,,,0.00,Weather View 32 v70,2013-06-22 02:45:00,
2013-06-21 22:50:00,75.7,21.3,29.79,NE,45,2.0,6.0,13,0.00,,,0.00,Weather View 32 v70,2013-06-22 02:50:00,
2013-06-21 22:55:00,75.7,19.4,29.79,NE,45,2.0,5.0,12,0.00,,,0.00,Weather View 32 v70,2013-06-22 02:55:00,
2013-06-21 23:00:00,75.4,17.1,29.79,NE,45,4.0,5.0,11,0.00,,,0.00,Weather View 32 v70,2013-06-22 03:00:00,
2013-06-21 23:05:00,75.3,17.0,29.79,NE,45,4.0,5.0,11,0.00,,,0.00,Weather View 32 v70,2013-06-22 03:05:00,
2013-06-21 23:10:00,75.2,14.8,29.79,NE,45,4.0,5.0,10,0.00,,,0.00,Weather View 32 v70,2013-06-22 03:10:00,
2013-06-21 23:15:00,75.1,12.3,29.79,NE,45,3.0,5.0,9,0.00,,,0.00,Weather View 32 v70,2013-06-22 03:15:00,
2013-06-21 23:20:00,74.9,12.2,29.79,NE,45,1.0,5.0,9,0.00,,,0.00,Weather View 32 v70,2013-06-22 03:20:00,
2013-06-21 23:25:00,74.9,9.5,29.79,NE,45,2.0,5.0,8,0.00,,,0.00,Weather View 32 v70,2013-06-22 03:25:00,
2013-06-21 23:30:00,74.9,12.2,29.79,NE,45,4.0,6.0,9,0.00,,,0.00,Weather View 32 v70,2013-06-22 03:30:00,
2013-06-21 23:35:00,74.9,9.5,29.78,ENE,67,4.0,6.0,8,0.00,,,0.00,Weather View 32 v70,2013-06-22 03:35:00,
2013-06-21 23:40:00,74.9,12.2,29.78,NE,45,4.0,6.0,9,0.00,,,0.00,Weather View 32 v70,2013-06-22 03:40:00,
2013-06-21 23:45:00,74.8,12.1,29.78,NE,45,2.0,6.0,9,0.00,,,0.00,Weather View 32 v70,2013-06-22 03:45:00,
2013-06-21 23:50:00,74.6,9.3,29.78,ENE,67,2.0,6.0,8,0.00,,,0.00,Weather View 32 v70,2013-06-22 03:50:00,
2013-06-21 23:55:00,74.3,2.8,29.78,ENE,67,2.0,6.0,6,0.00,,,0.00,Weather View 32 v70,2013-06-22 03:55:00,